Tracking 30115 objects as of 16-Jan-2025
HD Live streaming from Space Station
objects crossing your sky now

ESSA 3 (TOS-A)

Track ESSA 3 (TOS-A) now!
10-day predictions
ESSA 3 (TOS-A) is classified as:


NORAD ID: 2435
Int'l Code: 1966-087A
Perigee: 1,393.0 km
Apogee: 1,493.0 km
Inclination: 101.1 °
Period: 114.6 minutes
Semi major axis: 7814 km
RCS: 0.8135 m2 (medium)
Launch date: October 2, 1966
Source: United States (US)
Launch site: AIR FORCE WESTERN TEST RANGE (AFWTR)
Your satellite tracking list
Your tracking list is empty




NASA's NSSDC Master Catalog

Two Line Element Set (TLE):
1 02435U 66087A   25015.77041608 -.00000028  00000-0  83846-4 0  9991
2 02435 101.0870 304.3473 0064010 351.0420  64.3646 12.56870985674000
Source of the keplerian elements: AFSPC